星链-2126 (STARLINK-2126 )

导读

STARLINK-2126是美国SpaceX公司星链(Starlink)星座的成员卫星,于2021年3月4日发射升空,属于星链互联网卫星组网计划的一部分,主要用于为全球范围提供低延迟、高速率的卫星互联网接入服务,推进SpaceX全球卫星互联网络的构建。

Basic Information
目录编号:
47726
目录名称:
STARLINK-2126
国际标识:
2021-017E
轨道中心:
EARTH
卫星名称:
星链-2126
卫星全名:
星链-2126 (STARLINK-2126 )
卫星状态:
已陨落 最后检测时间 2024-12-31
发射日期:
2021-03-04 UTC
国别 :
美国 (US)
星等 :
--
Orbit Information
数据来源 国际轨道数据
星历时间: 2024-12-31T21:24:15+0800
轨道信息已过期534天
半长轴: 6528.832km
偏心率: 0.0003881
轨道倾角: 53.023°
近地点辐角 220.968°
升交点赤经 266.166°
平近点角 280.289°
近地点: 148.163km
远地点: 153.231km
周期: 87.501分钟
每日圈数: 16.456957
Detailed Information
固有亮度:
5
最大亮度:
2.5
卫星平台:
Starlink V1.0
覆盖范围:
全球
运营商:
太空探索技术公司
运营商所在国:
美国
制造商(研发单位):
太空探索技术公司
制造商所在国:
美国
使用方式:
暂无
Satellite Introduction
星链(Starlink)计划是由太空探索技术公司(SpaceX)提出的一个巨型低轨卫星互联网星座项目,计划在2019年至2024年间在太空搭建由约1.2万颗卫星组成的“星链”网络,其中1584颗将部署在地球上空550千米处的近地轨道,并从2020年开始工作。该卫星仍在工作。